Weather History for KOFK - May, 2013

Change the Weather History Date:

Thursday, May 30, 2013

  Actual Average Record
Temperature  
Mean Temperature 68 °F 65 °F  
Max Temperature 78 °F 77 °F 105 °F (1934)
Min Temperature 57 °F 53 °F 35 °F (1947)
Degree Days  
Heating Degree Days 0 3  
Month to date heating degree days 226 186  
Since 1 July heating degree days 6767 6609  
Cooling Degree Days 3 3  
Month to date cooling degree days 59 47  
Year to date cooling degree days 63 59  
Growing Degree Days 18 (Base 50)    
Moisture  
Dew Point 56 °F    
Average Humidity 70    
Maximum Humidity 100    
Minimum Humidity 39    
Precipitation  
Precipitation 0.00 in 0.14 in 1.96 in (1961)
Month to date precipitation 5.40 3.78  
Year to date precipitation 11.42 9.55  
Snow  
Snow 0.00 in 0.00 in - ()
Month to date snowfall T 0.3  
Since 1 July snowfall 27.3 30.8  
Snow Depth 0.00 in    
Sea Level Pressure  
Sea Level Pressure 29.50 in    
Wind  
Wind Speed 15 mph (SSW)    
Max Wind Speed 28 mph    
Max Gust Speed 33 mph    
Visibility 9 miles    
Events Rain , Thunderstorm    
T = Trace of Precipitation, MM = Missing Value Source: NWS Daily Summary

Daily Weather History Graph

Daily Weather History Graph

Search for Another Location

Airport or City:

Trip Planner

Search our weather history database for the weather conditions in past years. The results will help you decide how hot, cold, wet, or windy it might be!

Date:

Astronomy

May. 30, 2013 Rise Set
Actual Time 5:57 AM CDT 8:57 PM CDT
Civil Twilight 5:24 AM CDT 9:31 PM CDT
Nautical Twilight 4:41 AM CDT 10:13 PM CDT
Astronomical Twilight 3:51 AM CDT 11:03 PM CDT
Moon 12:55 AM CDT (5/30) 12:11 PM CDT (5/30)
Length of Visible Light 16h 06m
Length of Day
14h 59m
Waning Gibbous, 62% of the Moon is Illuminated
May 30
Waning Gibbous
May 31
Last Quarter
Jun 8
New
Jun 16
First Quarter
Jun 23
Full

Hourly Weather History & Observations

Time (CDT) Temp. Dew Point Humidity Pressure Visibility Wind Dir Wind Speed Gust Speed Precip Events Conditions
12:03 AM 60.8 °F 59.0 °F 94% 29.59 in 2.0 mi SW 12.7 mph 26.5 mph 0.06 in Rain , Thunderstorm Heavy Rain
12:08 AM 60.8 °F 60.8 °F 100% 29.59 in 2.0 mi SW 16.1 mph 21.9 mph 0.11 in Rain Heavy Rain
12:10 AM 60.8 °F 60.8 °F 100% 29.59 in 2.0 mi SW 11.5 mph 20.7 mph 0.13 in Rain Heavy Rain
12:26 AM 60.8 °F 59.0 °F 94% 29.56 in 4.0 mi SW 11.5 mph - 0.25 in Rain Light Rain
12:56 AM 60.1 °F 57.9 °F 93% 29.49 in 10.0 mi SSW 9.2 mph - 0.26 in   Mostly Cloudy
1:56 AM 59.0 °F 57.9 °F 96% 29.47 in 10.0 mi South 11.5 mph - N/A   Clear
2:56 AM 57.9 °F 57.0 °F 97% 29.44 in 10.0 mi SE 6.9 mph - N/A   Clear
3:56 AM 57.9 °F 57.0 °F 97% 29.49 in 10.0 mi SSW 13.8 mph - N/A   Scattered Clouds
4:06 AM 57.2 °F 57.2 °F 100% 29.51 in 8.0 mi SSW 11.5 mph - N/A   Mostly Cloudy
4:51 AM 57.2 °F 57.2 °F 100% 29.53 in 5.0 mi SSW 10.4 mph - N/A   Scattered Clouds
4:56 AM 57.9 °F 57.0 °F 97% 29.51 in 5.0 mi SSW 9.2 mph - N/A   Scattered Clouds
5:56 AM 59.0 °F 57.0 °F 93% 29.50 in 10.0 mi South 15.0 mph - N/A   Clear
6:56 AM 59.0 °F 57.0 °F 93% 29.51 in 10.0 mi SSW 10.4 mph - N/A   Clear
7:56 AM 60.1 °F 57.0 °F 90% 29.54 in 10.0 mi South 13.8 mph - N/A   Clear
8:56 AM 61.0 °F 57.9 °F 90% 29.53 in 10.0 mi South 13.8 mph - N/A   Partly Cloudy
9:56 AM 64.0 °F 59.0 °F 84% 29.53 in 10.0 mi South 17.3 mph 21.9 mph N/A   Scattered Clouds
10:56 AM 69.1 °F 59.0 °F 70% 29.51 in 10.0 mi SSW 16.1 mph 27.6 mph N/A   Partly Cloudy
11:56 AM 71.1 °F 57.9 °F 63% 29.50 in 10.0 mi SW 23.0 mph 32.2 mph N/A   Scattered Clouds
12:56 PM 73.0 °F 57.9 °F 59% 29.48 in 10.0 mi South 20.7 mph 28.8 mph N/A   Clear
1:56 PM 73.9 °F 57.9 °F 57% 29.47 in 10.0 mi South 23.0 mph 32.2 mph N/A   Scattered Clouds
2:56 PM 75.9 °F 55.0 °F 48% 29.46 in 10.0 mi SW 19.6 mph 28.8 mph N/A   Mostly Cloudy
3:56 PM 77.0 °F 53.1 °F 43% 29.45 in 10.0 mi SW 25.3 mph 31.1 mph N/A   Scattered Clouds
4:56 PM 78.1 °F 53.1 °F 42% 29.46 in 10.0 mi SW 16.1 mph 26.5 mph N/A   Partly Cloudy
5:56 PM 77.0 °F 54.0 °F 45% 29.46 in 10.0 mi SW 11.5 mph - N/A   Clear
6:56 PM 77.0 °F 50.0 °F 39% 29.46 in 10.0 mi SW 17.3 mph - N/A   Partly Cloudy
7:34 PM 75.2 °F 51.8 °F 44% 29.49 in 10.0 mi SW 15.0 mph - N/A Thunderstorm Partly Cloudy
7:49 PM 73.4 °F 51.8 °F 47% 29.50 in 10.0 mi SW 12.7 mph - N/A   Partly Cloudy
7:56 PM 73.9 °F 52.0 °F 46% 29.47 in 10.0 mi SW 11.5 mph - N/A   Clear
8:56 PM 69.1 °F 50.0 °F 51% 29.50 in 10.0 mi SSW 16.1 mph 25.3 mph N/A   Partly Cloudy
9:56 PM 66.0 °F 52.0 °F 60% 29.55 in 10.0 mi SW 9.2 mph - N/A   Mostly Cloudy
10:56 PM 63.0 °F 52.0 °F 67% 29.54 in 10.0 mi South 11.5 mph - N/A   Clear
11:56 PM 62.1 °F 53.1 °F 72% 29.55 in 10.0 mi SW 4.6 mph - N/A   Clear